Regional Weather Roundup
Issued by NWS Kansas City/Pleasant Hill, MO

Home | Current Version | Previous Version | Graphics & Text | Print | Product List | Glossary Off
Versions: 1 2 3 4 5 6 7 8 9 10 11 12 13 14 15 16 17 18 19 20 21 22 23 24 25 26 27 28 29 30 31 32 33 34 35 36 37 38 39 40 41 42 43 44 45 46 47 48 49 50

000
ASUS43 KEAX 040211
RWREAX

WEATHER ROUNDUP FOR EASTERN KANSAS AND NORTHWEST MISSOURI
NATIONAL WEATHER SERVICE KANSAS CITY/PLEASANT HILL MO
900 PM CDT FRI JUL 03 2015

KSZ040-057-103>105-MOZ028-029-037-043-040300-
...KANSAS CITY METROPOLITAN AREA...

CITY           SKY/WX    TMP DP  RH WIND       PRES   REMARKS
K.C. INTL      PTCLDY    72  59  63 NE5       29.94S
K.C. DOWNTOWN  CLEAR     74  59  59 NE7       29.92S
LEES SUMMIT    CLEAR     74  58  57 NE5       29.94S
OLATHE - IXD   CLEAR     69  60  73 N3        29.95R
OLATHE - OJC   CLEAR     72  56  57 E3        29.93S
LAWRENCE       CLEAR     69  62  78 NE5       29.94R

$$

MOZ001>008-011>017-020>025-030>033-038>040-044>046-053-054-040300-
...NORTHERN AND CENTRAL MISSOURI...

CITY           SKY/WX    TMP DP  RH WIND       PRES   REMARKS
ST. JOSEPH     PTCLDY    72  60  66 N3        29.94S
MOSBY          CLEAR     72  59  64 NE3       29.93S
HARRISONVILLE  CLEAR     70  64  83 CALM      29.96S
WARRENSBURG    CLEAR     70  61  73 CALM      29.93S
WHITEMAN AFB   CLEAR     72  64  74 N3        29.93R
CLINTON        CLEAR     72  66  83 NE5       29.93S
SEDALIA        CLEAR     71  65  81 CALM      29.94R
WARSAW         FAIR      66  66 100 CALM      29.94R
CHILLICOTHE      N/A     69  65  86 CALM      29.95R
KIRKSVILLE     LGT RAIN  67  61  81 CALM      29.95R

$$

MOZ041-047>049-056>058-063>065-088>090-097-040300-
...EASTERN AND SOUTHERN MISSOURI...

CITY           SKY/WX    TMP DP  RH WIND       PRES   REMARKS
ST. LOUIS INTL PTCLDY    77  65  66 NE6       29.91R
SPIRIT OF STL  CLEAR     75  65  70 CALM      29.90R
COLUMBIA       CLEAR     72  62  71 NE5       29.92S
MEXICO         CLEAR     73  66  78 N3        29.92S
ROLLA          CLEAR     71  64  78 CALM      29.91S
LEBANON        CLEAR     70  63  78 MISG      29.94R
OSAGE BEACH    CLEAR     68  64  88 CALM      29.92S
SPRINGFIELD    PTCLDY    75  67  76 E3        29.92R
BRANSON        MOCLDY    73  70  88 CALM      29.92S
JOPLIN         CLEAR     74  70  87 NE3       29.91S
WEST PLAINS    PTCLDY    72  68  87 CALM      29.92S
MALDEN         RAIN      73  70  88 CALM      29.88F

$$

IAZ060-094-KSZ022-034>040-054-083-096-NEZ052-066-093-040300-
...KANSAS...SOUTHEAST NEBRASKA AND IOWA...

CITY           SKY/WX    TMP DP  RH WIND       PRES   REMARKS
TOPEKA         CLEAR     71  63  75 N3        29.94S
MANHATTAN      CLEAR     73  60  63 NE3       29.94S
EMPORIA        CLEAR     72  63  73 NE5       29.94S
CHANUTE        PTCLDY    75  67  76 NE5       29.92S
WICHITA        PTCLDY    77  63  61 E7        29.93S
OMAHA          PTCLDY    70  61  73 E5        29.95F
LINCOLN        CLEAR     72  61  68 NE5       29.97S
FALLS CITY     CLEAR     73  60  63 N3        29.94F
LAMONI         CLEAR     71  58  63 N3        29.96R
DES MOINES     CLEAR     73  58  59 S5        29.94S

$$




USA.gov is the U.S. government's official web portal to all federal, state and local government web resources and services.